Time,TemperatureF,DewpointF,PressureIn,WindDirection,WindDirectionDegrees,WindSpeedMPH,WindSpeedGustMPH,Humidity,HourlyPrecipIn,Conditions,Clouds,dailyrainin,SoftwareType,DateUTC
2013-06-16 00:01:00,64.0,-99.9,-100.00,SE,128,16.0,16.0,-999,-99.99,,,-99.99,,2013-06-16 07:01:00,
2013-06-16 00:12:00,64.0,-99.9,-100.00,SE,128,16.0,16.0,-999,-99.99,,,-99.99,,2013-06-16 07:12:00,
2013-06-16 00:23:00,64.0,-99.9,-100.00,SE,128,16.0,16.0,-999,-99.99,,,-99.99,,2013-06-16 07:23:00,
2013-06-16 00:30:00,62.0,-99.9,-100.00,SE,135,12.0,12.0,-999,-99.99,,,-99.99,,2013-06-16 07:30:00,
2013-06-16 01:22:00,62.0,-99.9,-100.00,SE,135,12.0,12.0,-999,-99.99,,,-99.99,,2013-06-16 08:22:00,
2013-06-16 02:50:00,61.0,-99.9,-100.00,SSE,150,10.0,15.0,-999,-99.99,,,-99.99,,2013-06-16 09:50:00,
2013-06-16 03:33:00,61.0,-99.9,-100.00,SSE,150,10.0,15.0,-999,-99.99,,,-99.99,,2013-06-16 10:33:00,
2013-06-16 03:43:00,61.0,-99.9,-100.00,SSE,150,10.0,15.0,-999,-99.99,,,-99.99,,2013-06-16 10:43:00,
2013-06-16 05:50:00,60.0,-99.9,-100.00,SSE,154,10.0,15.0,-999,-99.99,,,-99.99,,2013-06-16 12:50:00,
2013-06-16 06:43:00,60.0,-99.9,-100.00,SSE,154,10.0,15.0,-999,-99.99,,,-99.99,,2013-06-16 13:43:00,
2013-06-16 07:30:00,67.0,-99.9,-100.00,SE,141,11.0,17.0,-999,-99.99,,,-99.99,,2013-06-16 14:30:00,
2013-06-16 08:23:00,67.0,-99.9,-100.00,SE,141,11.0,17.0,-999,-99.99,,,-99.99,,2013-06-16 15:23:00,
2013-06-16 09:53:00,74.0,-99.9,-100.00,SE,135,15.0,19.0,-999,-99.99,,,-99.99,,2013-06-16 16:53:00,
2013-06-16 10:02:00,76.0,-99.9,-100.00,SE,143,10.0,16.0,-999,-99.99,,,-99.99,,2013-06-16 17:02:00,
2013-06-16 12:50:00,83.0,-99.9,-100.00,SSE,151,19.0,28.0,-999,-99.99,,,-99.99,,2013-06-16 19:50:00,
2013-06-16 13:34:00,83.0,-99.9,-100.00,SSE,151,19.0,28.0,-999,-99.99,,,-99.99,,2013-06-16 20:34:00,
2013-06-16 13:43:00,83.0,-99.9,-100.00,SSE,151,19.0,28.0,-999,-99.99,,,-99.99,,2013-06-16 20:43:00,
2013-06-16 15:52:00,83.0,-99.9,-100.00,SE,141,19.0,27.0,-999,-99.99,,,-99.99,,2013-06-16 22:52:00,
2013-06-16 16:02:00,83.0,-99.9,-100.00,SE,141,19.0,27.0,-999,-99.99,,,-99.99,,2013-06-16 23:02:00,
2013-06-16 17:02:00,80.0,-99.9,-100.00,SSE,150,21.0,25.0,-999,-99.99,,,-99.99,,2013-06-17 00:02:00,
2013-06-16 17:12:00,80.0,-99.9,-100.00,SSE,150,21.0,25.0,-999,-99.99,,,-99.99,,2013-06-17 00:12:00,
2013-06-16 17:20:00,78.0,-99.9,-100.00,SSE,160,27.0,27.0,-999,-99.99,,,-99.99,,2013-06-17 00:20:00,
2013-06-16 17:22:00,80.0,-99.9,-100.00,SSE,150,21.0,25.0,-999,-99.99,,,-99.99,,2013-06-17 00:22:00,
2013-06-16 18:02:00,78.0,-99.9,-100.00,SSE,160,27.0,27.0,-999,-99.99,,,-99.99,,2013-06-17 01:02:00,
2013-06-16 18:12:00,78.0,-99.9,-100.00,SSE,160,27.0,27.0,-999,-99.99,,,-99.99,,2013-06-17 01:12:00,
2013-06-16 19:34:00,75.0,-99.9,-100.00,SSE,157,27.0,28.0,-999,-99.99,,,-99.99,,2013-06-17 02:34:00,
2013-06-16 19:43:00,75.0,-99.9,-100.00,SSE,157,27.0,28.0,-999,-99.99,,,-99.99,,2013-06-17 02:43:00,
2013-06-16 20:40:00,69.0,-99.9,-100.00,SE,124,18.0,18.0,-999,-99.99,,,-99.99,,2013-06-17 03:40:00,
2013-06-16 21:02:00,68.0,-99.9,-100.00,SE,132,18.0,19.0,-999,-99.99,,,-99.99,,2013-06-17 04:02:00,
2013-06-16 21:12:00,68.0,-99.9,-100.00,SE,132,18.0,19.0,-999,-99.99,,,-99.99,,2013-06-17 04:12:00,
2013-06-16 21:23:00,69.0,-99.9,-100.00,SE,124,18.0,18.0,-999,-99.99,,,-99.99,,2013-06-17 04:23:00,
2013-06-16 21:34:00,69.0,-99.9,-100.00,SE,124,18.0,18.0,-999,-99.99,,,-99.99,,2013-06-17 04:34:00,
2013-06-16 22:53:00,65.0,-99.9,-100.00,SSE,161,12.0,15.0,-999,-99.99,,,-99.99,,2013-06-17 05:53:00,
2013-06-16 23:02:00,65.0,-99.9,-100.00,SSE,161,12.0,15.0,-999,-99.99,,,-99.99,,2013-06-17 06:02:00,